{"data":{"norad_id":69606,"epoch":"2026-09-20T04:00:03.000096Z","epoch_age_seconds":57773,"freshness":"FRESH","line1":"1 69606U 26140Q   26263.16670139 -.00003042  00000+0 -91734-4 0  9990","line2":"2 69606  51.8811 300.5473 0013035 131.2397 122.0241 15.29609695  4988","mean_motion":15.29609695,"eccentricity":0.0013035,"inclination_deg":51.8811,"raan_deg":300.5473,"arg_perigee_deg":131.2397,"mean_anomaly_deg":122.0241,"bstar":-9.1734e-5,"rev_number":498,"period_min":94.141662720044,"perigee_km":468.04253791634,"apogee_km":485.91382319205,"semimajor_km":6855.1151805542,"source":"CELESTRAK","updated_at":"2026-09-20T09:00:25.002254Z"}}